Regional Weather Roundup
Issued by NWS

Home | Current Version | Previous Version | Text Only | Print | Product List | Glossary Off
Versions: 1 2 3 4 5 6 7 8 9 10 11 12 13 14 15 16 17 18 19 20 21 22 23 24 25 26 27 28 29 30 31 32 33 34 35 36 37 38 39 40 41 42 43 44 45 46 47 48 49 50

000
ASUS43 KBIS 271610
RWRND

NORTH DAKOTA REGIONAL WEATHER ROUNDUP
NATIONAL WEATHER SERVICE BISMARCK ND
1100 AM CDT THU AUG 27 2015

NOTE: "FAIR" INDICATES FEW OR NO CLOUDS BELOW 12,000 FEET WITH NO
SIGNIFICANT WEATHER AND/OR OBSTRUCTIONS TO VISIBILITY.


NDZ001>003-009>011-017-271700-
NORTHWEST NORTH DAKOTA

CITY           SKY/WX    TMP DP  RH WIND       PRES   REMARKS
WILLISTON      MOSUNNY   70  61  73 NE7       29.98S
MINOT          PTSUNNY   67  60  78 CALM      29.97R
MINOT AFB      MOSUNNY   68  65  90 N1        29.96R
$$

NDZ018>021-031>035-040>046-271700-
SOUTHWEST NORTH DAKOTA

CITY           SKY/WX    TMP DP  RH WIND       PRES   REMARKS
BISMARCK       CLOUDY    70  63  78 CALM      29.99R
DICKINSON      CLOUDY    73  61  65 S8        29.98S
GARRISON         N/A     75  65  70 SE6       29.97R
HETTINGER ARPT CLOUDY    70  60  70 E6        30.01F
$$

NDZ004>008-012>016-024-026-027-054-271700-
NORTHEAST NORTH DAKOTA

CITY           SKY/WX    TMP DP  RH WIND       PRES   REMARKS
GRAND FORKS    PTSUNNY   66  57  72 S5        29.97S
GRND FRKS AFB  PTSUNNY   66  57  72 S6        29.98R
DEVILS LAKE    MOSUNNY   70  59  68 E3        29.95S
$$

NDZ022-023-025-028>030-036>039-047>053-271700-
SOUTHEAST NORTH DAKOTA

CITY           SKY/WX    TMP DP  RH WIND       PRES   REMARKS
FARGO          MOSUNNY   71  60  68 SE7       29.97R
JAMESTOWN      PTSUNNY   71  63  75 SE8       29.96F
$$




USA.gov is the U.S. government's official web portal to all federal, state and local government web resources and services.